SCP
-0 0 0 0 0 0 0 0 0 0 0 0 0 0 0 0 0 0 0 0 0 0 0 0 0 0 0 0 0 0 0 0 0 0 0 0 0 0 0 0 1 0 0 0 0 0 0 0 0
0 0 0 0 0 0 0 0 0 0 0 0 0 0 0 0 0 0 0 0 0 0 0 -0 0 0 0 0 0 0 0 0 0 0 0 0 0 0 0 0 1 0 0 0 0 0 0 0 0
0 0 0 0 0 0 0 0 0 0 0 0 0 0 0 0 0 0 0 0 0 0 0 -0 0 0 0 0 0 0 0 0 0 0 0 0 0 0 0 0 0 1 0 0 0 0 0 0 0
0 0 0 0 -0 0 0 0 0 0 0 0 0 0 0 0 0 0 0 0 0 0 -0 -0 0 0 0 0 0 0 0 0 0 0 0 0 0 0 0 0 0 0 0 0 0 0 0 0 0
0 0 0 0 0 0 0 0 0 0 0 0 0 0 0 0 0 0 0 0 0 0 0 0 0 0 0 0 0 0 0 0 0 1 0 0 0 0 0 0 0 0 0 0 0 0 0 0 0
0 0 0 0 0 0 0 0 0 0 0 0 0 0 0 0 0 0 0 0 0 0 0 0 0 0 0 0 0 0 0 0 0 0 1 1 0 0 0 0 0 0 0 0 0 0 0 0 0
0 0 0 0 0 0 0 0 0 0 0 0 0 0 0 0 0 0 0 0 0 0 0 0 0 0 0 0 0 0 0 0 0 0 0 0 0 0 0 0 0 0 0 0 0 0 0 0 0
0 0 0 0 0 0 0 0 0 0 0 0 0 0 0 0 0 0 0 0 0 0 0 0 0 -0 0 0 0 0 0 0 0 0 0 0 0 0 0 0 0 0 0 0 0 0 0 0 0
0 0 0 0 0 0 0 0 0 0 0 0 0 0 0 0 0 0 0 0 0 0 0 0 0 0 0 0 0 0 0 0 0 0 0 0 0 0 0 0 0 0 0 0 0 0 0 0 0
0 0 0 0 0 0 0 0 0 0 0 0 0 0 0 0 0 0 0 0 0 0 0 0 0 0 0 0 0 0 0 0 0 0 0 0 0 0 1 0 0 0 0 0 0 0 0 0 0
0 0 0 0 0 0 0 0 0 0 0 0 0 0 0 0 0 0 0 0 0 0 0 0 0 0 0 0 0 0 0 0 0 0 0 0 0 0 0 0 0 0 0 0 0 0 0 0 0
0 0 0 0 0 0 0 0 0 0 0 0 0 0 0 0 0 0 0 0 0 0 0 0 0 0 0 0 0 0 0 0 0 0 0 0 0 0 0 0 0 0 0 0 0 0 0 0 0
0 0 0 0 0 0 0 0 0 0 0 0 0 0 0 0 0 0 0 0 0 0 0 0 0 0 0 0 0 0 0 0 0 0 0 0 0 0 0 0 0 0 0 0 0 0 0 0 0
0 0 0 0 0 0 0 0 0 0 0 0 0 0 0 0 0 0 0 0 0 0 0 0 0 0 0 0 0 0 0 0 0 0 0 0 0 0 0 0 0 0 0 0 0 0 0 0 0
0 0 0 0 0 0 0 0 0 0 0 0 0 0 0 0 0 0 0 0 0 0 0 0 0 0 0 0 0 0 0 0 0 0 0 0 0 0 0 0 0 1 0 0 0 0 0 0 0
0 0 0 0 0 0 0 0 0 0 0 0 0 0 0 0 0 0 0 0 0 0 0 0 0 0 0 0 0 0 0 0 0 0 0 0 0 0 0 0 0 1 0 0 0 0 0 0 -0
0 0 0 0 0 0 0 0 0 0 0 0 0 0 0 0 0 0 0 0 0 0 0 0 0 0 0 0 0 0 0 0 0 0 0 0 0 0 0 0 0 0 0 0 0 0 0 0 0
0 0 0 0 0 0 0 0 0 0 0 0 0 0 0 0 0 0 0 0 0 0 0 0 0 0 0 0 0 0 0 0 0 0 0 0 0 0 0 0 0 0 0 0 0 0 0 0 0
0 0 0 0 0 0 0 0 0 0 0 0 0 0 0 0 0 0 0 0 0 0 0 0 0 0 0 0 0 0 0 0 0 0 0 0 0 0 0 0 0 0 0 0 0 0 0 0 0
0 0 0 0 0 0 0 0 0 0 0 0 0 0 0 0 0 0 0 0 0 0 0 0 0 0 0 0 0 0 0 0 0 0 0 0 0 0 0 0 0 0 0 0 0 0 0 0 0
0 0 0 0 0 0 0 0 0 0 0 0 0 0 0 0 0 0 0 0 0 0 0 0 0 0 0 0 0 0 0 0 0 0 0 0 0 0 0 0 0 0 0 0 0 0 0 0 0
0 0 0 0 0 0 0 0 0 0 0 0 0 0 0 0 0 0 0 0 0 0 0 0 0 0 0 0 0 0 0 0 0 0 0 0 0 0 0 0 0 0 0 0 0 0 0 0 0
0 0 0 0 0 0 0 0 0 0 0 0 0 0 0 0 0 0 0 0 0 0 0 0 0 0 0 0 0 0 0 0 0 0 0 0 0 0 0 0 0 0 0 0 0 0 0 0 0
0 0 0 0 0 0 0 0 0 0 0 0 0 0 0 0 0 0 0 0 0 0 0 0 0 0 0 0 0 0 0 0 0 0 0 0 0 0 0 0 0 0 0 0 0 0 0 0 0
0 0 0 0 0 0 0 0 0 0 0 0 0 0 0 0 0 0 0 0 0 0 0 0 0 0 0 0 0 0 0 0 0 0 0 0 0 0 0 0 0 0 0 0 0 0 0 0 0
0 0 0 0 0 0 0 0 0 0 0 0 0 0 0 0 0 0 0 0 0 -0 -0 -0 -0 0 0 0 0 0 0 0 0 0 0 0 0 0 0 0 0 0 0 0 0 0 0 0 0
0 0 0 0 0 0 0 0 0 0 0 0 0 0 0 0 0 0 0 0 0 0 0 0 -0 -0 -0 0 0 0 0 0 0 0 0 0 0 0 0 0 0 0 0 0 0 0 0 0 0
0 0 0 0 0 0 0 0 0 0 0 0 0 0 0 0 0 0 0 0 0 0 0 0 -0 0 -0 -0 0 0 0 0 0 0 0 0 0 0 0 0 0 0 0 0 0 0 0 0 0
0 0 0 0 0 0 0 0 0 0 0 0 0 0 0 0 0 0 0 0 0 0 0 -0 -0 -0 -0 0 0 0 0 0 0 0 0 0 0 0 0 0 0 0 0 0 0 0 0 0 0
0 0 0 0 0 0 0 0 0 0 0 0 0 0 0 0 0 0 0 0 0 0 -0 -0 -0 0 0 0 -0 -0 0 0 0 0 0 0 0 0 0 0 0 0 0 0 0 0 0 0 0
Wind_Speed_500mb
3 5 12 3 5 6 11 2 22 14 12 13 6 8 13 15 10 5 11 15 23 29 39 29 26 15 17 19 19 21 24 26 28 26 25 24 26 30 34 37 38 38 38 38 38 36 31 31 34
4 15 5 9 5 10 6 13 16 24 19 10 8 11 12 3 15 7 11 25 30 29 33 34 26 19 21 24 22 25 24 26 30 32 30 28 29 33 37 40 43 41 40 38 36 33 28 27 31
13 15 7 4 7 7 6 16 18 20 14 8 7 6 9 7 10 8 14 21 27 36 34 35 32 23 24 27 30 24 27 26 31 35 35 34 35 35 37 42 47 45 45 41 40 33 27 25 27
11 2 8 4 16 10 7 13 14 8 3 14 10 12 10 10 9 4 14 22 23 31 43 38 31 31 21 30 32 34 30 30 29 36 40 41 40 39 39 45 47 48 47 44 40 35 27 23 26
8 8 6 9 18 5 11 15 11 6 12 7 16 6 7 12 6 12 19 22 26 26 34 38 29 28 31 27 30 35 34 34 34 37 42 46 46 45 43 44 47 48 48 45 42 37 27 23 23
9 7 7 11 7 9 8 18 14 12 13 10 7 13 4 14 11 19 22 27 28 31 37 41 38 32 29 31 31 27 37 39 41 42 43 47 50 50 49 47 48 49 48 48 46 36 30 24 22
6 6 12 12 11 8 9 9 4 14 13 6 7 5 7 1 19 18 22 26 29 33 43 45 42 45 39 33 32 34 30 34 36 44 44 47 51 53 53 52 50 49 51 51 51 43 34 27 22
6 5 8 11 6 7 9 5 5 6 10 5 3 8 5 23 32 39 41 39 31 33 40 48 51 48 48 46 39 34 35 34 39 41 50 50 51 53 55 55 54 53 54 55 54 47 40 30 23
4 5 9 9 7 8 16 3 7 6 17 19 21 25 30 16 26 42 49 48 38 35 40 42 47 52 48 47 49 40 36 35 38 39 39 46 49 55 55 57 58 57 56 56 58 53 44 32 26
5 5 12 9 11 9 19 17 20 11 26 34 39 29 16 26 33 31 28 33 41 46 45 41 47 48 51 47 45 44 39 35 30 30 36 39 43 53 57 57 60 60 60 60 62 60 51 39 31
2 5 8 9 11 13 13 22 26 22 14 32 12 20 34 44 40 33 32 32 39 46 52 50 52 56 54 52 50 44 42 37 28 23 28 35 32 44 56 52 57 56 56 59 67 75 57 47 37
8 13 6 5 4 5 10 23 20 35 41 30 16 21 34 37 32 32 39 41 43 41 48 52 50 52 59 56 52 49 45 41 39 22 17 20 25 25 30 54 48 44 52 58 64 80 52 51 38
9 8 7 16 18 23 24 24 25 39 37 32 21 27 30 31 36 37 36 38 42 49 53 54 50 50 54 59 55 52 51 47 42 43 24 17 18 18 20 31 46 46 45 47 52 60 47 47 37
13 23 30 18 14 16 19 25 19 14 9 15 9 17 19 26 33 39 38 43 47 50 53 55 54 45 49 51 55 55 55 53 48 46 45 36 21 18 15 19 19 19 27 47 38 25 24 30 37
13 12 14 24 11 5 13 22 22 15 21 9 16 23 19 24 26 31 36 43 50 50 48 51 52 45 48 53 53 44 52 53 48 46 47 45 37 29 20 20 20 22 25 34 26 18 11 23 35
6 7 9 12 16 11 13 11 14 15 12 15 22 28 22 24 27 32 36 50 55 52 49 51 54 55 49 51 55 57 54 50 49 48 48 45 41 33 27 22 26 24 29 33 42 38 40 43 50
10 9 15 6 15 5 11 17 18 19 24 31 22 22 21 25 28 35 46 47 52 51 51 50 53 51 45 46 47 55 49 51 51 36 46 48 46 39 31 28 24 29 30 37 44 37 49 60 54
5 9 8 16 5 18 20 40 24 31 26 18 13 21 22 25 33 42 45 45 49 48 46 42 46 49 47 41 44 51 41 39 43 37 43 48 34 33 47 41 31 26 38 38 42 49 48 56 60
8 11 20 26 6 6 18 32 36 34 33 21 16 18 15 26 38 42 46 44 48 46 44 40 42 48 44 42 40 45 35 34 36 35 34 42 35 38 41 45 46 22 38 44 44 46 50 60 66
11 18 23 20 6 19 23 41 41 21 11 12 1 3 14 31 40 46 46 44 51 49 42 43 41 45 43 39 37 45 42 40 31 35 32 40 33 37 40 45 61 48 44 51 45 49 53 69 62
14 15 14 12 20 26 18 17 10 6 13 14 4 8 14 28 40 49 45 46 51 48 41 41 40 44 41 30 41 39 39 37 31 18 18 25 38 49 50 46 59 63 58 55 52 49 55 58 60
6 9 11 17 12 8 10 11 8 12 9 10 16 21 15 31 42 45 41 45 50 43 39 38 41 38 36 36 35 30 35 30 27 21 15 36 41 44 42 48 50 59 55 52 53 46 51 59 64
16 14 15 15 5 13 4 0 10 10 7 14 17 9 17 32 45 38 38 40 44 41 40 39 41 37 34 31 30 27 28 32 40 27 30 25 36 37 39 40 43 51 56 49 41 45 54 57 61
14 12 10 4 4 3 10 3 8 6 6 5 5 20 31 48 35 33 34 38 38 35 36 38 39 39 34 29 25 25 25 31 34 27 37 36 38 31 30 36 40 44 46 50 54 41 51 57 61
6 5 7 8 4 8 9 7 17 13 8 6 10 37 44 41 30 32 36 39 39 39 39 37 39 39 33 26 22 21 21 27 24 28 32 32 32 29 30 32 35 38 41 45 55 60 50 48 56
5 4 6 9 8 9 11 11 11 7 8 18 26 31 35 29 29 31 34 35 39 42 39 35 40 40 32 23 19 17 17 25 24 24 26 28 27 26 27 27 29 31 33 39 43 47 55 52 62
3 2 4 1 4 2 8 10 3 9 14 21 21 23 29 27 28 26 29 35 40 37 34 33 37 35 29 22 15 10 11 21 22 24 25 25 24 23 19 19 22 24 26 28 30 38 49 46 59
4 8 3 2 8 11 10 10 9 11 16 12 13 23 24 24 25 26 33 34 32 31 31 29 33 29 25 19 11 4 9 15 17 20 20 19 14 12 15 19 22 22 24 27 30 27 36 43 43
4 4 5 2 2 5 8 12 9 13 11 12 9 21 21 19 16 28 29 25 27 26 28 29 29 26 21 16 11 4 3 8 12 15 16 15 17 18 19 20 21 22 20 23 24 25 25 26 27
6 2 7 7 7 7 3 15 8 10 9 13 18 16 14 12 20 27 21 23 22 24 26 28 26 23 18 16 13 10 7 4 6 9 12 14 17 19 20 22 26 28 28 28 28 28 30 27 31
Wind_Direction_500mb
201 104 90 226 247 226 265 273 89 135 150 81 48 305 357 317 340 53 45 336 346 359 341 350 348 312 279 288 267 256 268 265 248 236 228 225 213 202 193 191 185 181 179 178 179 181 189 188 193
187 101 53 255 255 220 222 37 80 47 51 36 278 255 261 68 55 55 290 327 355 347 339 341 342 320 286 272 276 261 254 261 249 236 229 224 218 209 200 198 193 189 187 187 188 191 200 207 206
150 111 274 228 227 241 19 39 70 88 86 43 332 42 316 43 33 67 339 341 359 346 331 321 329 323 308 277 268 265 254 251 250 240 229 222 220 216 208 206 201 204 204 204 209 207 206 221 217
110 338 268 280 251 274 60 58 60 4 291 130 111 294 92 33 87 339 312 344 348 356 328 321 316 318 304 298 273 267 256 252 244 241 234 227 223 221 216 214 208 209 211 208 208 213 221 222 215
118 263 259 220 248 190 85 73 58 313 307 356 57 255 43 95 148 266 299 335 345 354 330 316 308 307 309 291 287 273 267 249 243 234 235 229 228 226 223 221 216 214 214 212 214 213 224 215 217
238 281 247 233 166 100 90 55 355 293 289 336 358 2 28 156 255 301 331 331 326 339 318 304 309 307 310 310 284 280 267 254 248 235 233 229 228 227 227 227 224 222 220 217 213 219 217 221 220
267 193 255 320 290 110 86 67 299 10 330 360 66 305 152 332 330 317 317 317 323 320 305 309 312 308 306 310 311 290 269 258 259 250 236 233 228 225 226 230 231 228 226 219 217 218 214 218 221
289 326 265 214 8 53 73 9 131 274 302 35 206 224 312 327 313 311 306 306 310 300 297 298 307 305 300 301 304 303 296 269 248 251 245 233 231 230 225 224 228 230 232 225 221 218 213 217 219
301 271 261 324 46 80 142 206 203 302 241 262 264 267 280 304 346 302 310 312 304 305 300 303 300 296 295 293 293 300 297 290 274 245 243 237 233 235 232 228 225 225 230 232 226 218 215 213 218
260 273 17 12 15 336 340 322 315 303 288 290 287 280 285 328 333 342 333 324 317 306 309 307 307 303 294 289 283 288 294 293 282 278 252 236 230 234 236 231 228 228 228 230 229 222 210 205 216
232 257 44 38 15 349 312 300 301 291 267 287 357 310 292 305 331 329 322 317 308 308 307 303 299 300 300 294 284 273 279 281 286 273 262 250 243 232 236 236 234 233 230 231 228 212 207 203 204
281 254 318 341 316 281 286 300 280 275 276 289 282 295 301 314 321 323 319 312 318 311 298 301 303 297 293 294 290 276 264 268 267 269 255 258 253 252 236 233 232 231 230 233 234 217 216 197 199
230 311 302 267 276 266 277 281 275 276 272 286 271 287 308 311 313 316 314 315 304 303 303 302 300 296 294 291 291 282 266 254 259 259 250 246 245 250 252 233 235 235 231 227 222 213 199 191 191
354 306 280 277 257 267 277 281 302 272 273 238 263 278 284 295 303 310 314 309 306 303 305 305 302 295 292 286 284 285 273 257 248 254 248 248 251 249 237 229 229 212 223 226 203 145 190 175 182
296 300 268 219 211 281 4 274 216 242 155 199 256 260 278 294 299 307 311 305 304 307 305 303 303 294 281 279 277 276 277 267 248 241 249 243 241 246 251 223 225 193 199 193 191 155 155 212 220
255 236 292 150 164 144 86 260 91 136 156 233 263 284 284 291 303 311 303 301 307 305 303 301 300 295 285 282 277 268 266 260 249 242 238 242 238 228 238 241 225 217 214 204 218 198 199 223 210
207 262 304 304 181 148 177 276 285 205 214 229 247 271 280 292 305 305 302 307 308 306 308 305 301 304 300 287 286 276 271 259 246 251 237 233 234 229 228 252 247 218 226 227 227 227 227 210 206
329 307 304 295 178 206 239 266 280 272 284 272 226 277 284 301 309 305 305 308 306 310 309 303 304 300 300 287 290 278 273 255 239 239 243 236 238 238 235 236 256 246 222 233 230 225 231 214 203
325 283 269 279 294 306 264 279 286 281 256 251 212 250 282 307 307 306 309 312 311 310 311 311 303 303 293 283 286 281 273 235 225 230 235 240 234 243 237 224 236 254 239 236 234 231 224 216 209
286 284 279 280 59 318 282 287 283 269 256 233 172 76 317 313 310 314 316 315 308 312 311 310 303 297 291 275 275 276 281 237 216 210 220 228 227 221 235 230 234 241 250 238 236 233 220 210 223
260 252 289 299 328 272 325 280 138 72 75 82 82 241 306 316 314 312 316 314 307 313 314 314 309 304 296 272 265 273 279 260 235 215 209 213 213 224 231 226 220 222 233 224 227 229 228 218 206
274 30 332 313 0 297 76 287 256 140 157 178 219 228 305 319 308 309 310 310 310 314 314 314 311 304 298 273 266 262 268 261 211 205 175 205 214 225 221 222 221 226 231 223 218 231 229 224 218
234 351 290 276 234 309 161 35 254 120 203 231 203 223 306 306 307 308 314 312 317 321 324 323 315 306 298 286 264 255 253 251 215 208 204 214 231 227 231 236 231 230 237 226 219 225 233 231 222
310 306 261 93 213 266 181 155 262 172 219 291 270 312 307 310 311 312 317 317 319 319 316 319 324 315 305 291 265 245 242 242 223 220 216 233 242 243 242 245 246 244 242 235 223 233 229 233 236
266 301 320 324 263 239 158 250 259 192 212 264 295 295 308 320 313 327 330 330 328 326 320 322 324 322 316 300 271 245 233 232 219 221 227 234 246 246 244 246 246 245 244 239 228 225 238 230 230
43 104 142 274 297 303 186 238 262 188 221 257 285 287 312 314 333 337 332 330 326 323 329 330 329 327 324 313 283 247 221 221 219 226 231 236 242 240 246 244 236 240 244 238 231 228 240 235 239
188 202 79 309 86 346 230 256 188 194 243 246 286 310 321 339 343 337 330 324 327 333 340 342 333 332 330 321 296 267 208 219 218 231 234 237 240 244 239 230 238 232 234 229 235 230 235 231 237
310 154 86 157 310 298 277 281 260 246 256 285 315 327 336 345 342 336 323 325 332 339 342 342 335 339 339 332 320 305 198 215 218 227 236 236 230 221 222 215 218 214 218 216 209 212 231 224 222
147 195 207 91 164 237 306 266 213 208 233 280 302 330 350 342 340 316 320 332 344 349 347 345 345 353 358 360 4 30 146 185 197 215 218 224 218 207 200 189 185 177 184 184 188 212 193 203 195
337 303 162 137 253 242 191 271 194 207 228 263 292 329 323 314 294 309 324 347 357 359 354 356 359 3 14 29 39 53 69 110 173 191 194 188 179 164 157 153 153 151 146 150 152 160 152 152 136
Wind_Speed_850mb
3 5 12 3 5 6 11 2 22 14 12 13 6 8 13 15 10 5 11 15 23 29 39 29 26 15 17 19 19 21 24 26 28 26 25 24 26 30 34 37 38 38 38 38 38 36 31 31 34
4 15 5 9 5 10 6 13 16 24 19 10 8 11 12 3 15 7 11 25 30 29 33 34 26 19 21 24 22 25 24 26 30 32 30 28 29 33 37 40 43 41 40 38 36 33 28 27 31
13 15 7 4 7 7 6 16 18 20 14 8 7 6 9 7 10 8 14 21 27 36 34 35 32 23 24 27 30 24 27 26 31 35 35 34 35 35 37 42 47 45 45 41 40 33 27 25 27
11 2 8 4 16 10 7 13 14 8 3 14 10 12 10 10 9 4 14 22 23 31 43 38 31 31 21 30 32 34 30 30 29 36 40 41 40 39 39 45 47 48 47 44 40 35 27 23 26
8 8 6 9 18 5 11 15 11 6 12 7 16 6 7 12 6 12 19 22 26 26 34 38 29 28 31 27 30 35 34 34 34 37 42 46 46 45 43 44 47 48 48 45 42 37 27 23 23
9 7 7 11 7 9 8 18 14 12 13 10 7 13 4 14 11 19 22 27 28 31 37 41 38 32 29 31 31 27 37 39 41 42 43 47 50 50 49 47 48 49 48 48 46 36 30 24 22
6 6 12 12 11 8 9 9 4 14 13 6 7 5 7 1 19 18 22 26 29 33 43 45 42 45 39 33 32 34 30 34 36 44 44 47 51 53 53 52 50 49 51 51 51 43 34 27 22
6 5 8 11 6 7 9 5 5 6 10 5 3 8 5 23 32 39 41 39 31 33 40 48 51 48 48 46 39 34 35 34 39 41 50 50 51 53 55 55 54 53 54 55 54 47 40 30 23
4 5 9 9 7 8 16 3 7 6 17 19 21 25 30 16 26 42 49 48 38 35 40 42 47 52 48 47 49 40 36 35 38 39 39 46 49 55 55 57 58 57 56 56 58 53 44 32 26
5 5 12 9 11 9 19 17 20 11 26 34 39 29 16 26 33 31 28 33 41 46 45 41 47 48 51 47 45 44 39 35 30 30 36 39 43 53 57 57 60 60 60 60 62 60 51 39 31
2 5 8 9 11 13 13 22 26 22 14 32 12 20 34 44 40 33 32 32 39 46 52 50 52 56 54 52 50 44 42 37 28 23 28 35 32 44 56 52 57 56 56 59 67 75 57 47 37
8 13 6 5 4 5 10 23 20 35 41 30 16 21 34 37 32 32 39 41 43 41 48 52 50 52 59 56 52 49 45 41 39 22 17 20 25 25 30 54 48 44 52 58 64 80 52 51 38
9 8 7 16 18 23 24 24 25 39 37 32 21 27 30 31 36 37 36 38 42 49 53 54 50 50 54 59 55 52 51 47 42 43 24 17 18 18 20 31 46 46 45 47 52 60 47 47 37
13 23 30 18 14 16 19 25 19 14 9 15 9 17 19 26 33 39 38 43 47 50 53 55 54 45 49 51 55 55 55 53 48 46 45 36 21 18 15 19 19 19 27 47 38 25 24 30 37
13 12 14 24 11 5 13 22 22 15 21 9 16 23 19 24 26 31 36 43 50 50 48 51 52 45 48 53 53 44 52 53 48 46 47 45 37 29 20 20 20 22 25 34 26 18 11 23 35
6 7 9 12 16 11 13 11 14 15 12 15 22 28 22 24 27 32 36 50 55 52 49 51 54 55 49 51 55 57 54 50 49 48 48 45 41 33 27 22 26 24 29 33 42 38 40 43 50
10 9 15 6 15 5 11 17 18 19 24 31 22 22 21 25 28 35 46 47 52 51 51 50 53 51 45 46 47 55 49 51 51 36 46 48 46 39 31 28 24 29 30 37 44 37 49 60 54
5 9 8 16 5 18 20 40 24 31 26 18 13 21 22 25 33 42 45 45 49 48 46 42 46 49 47 41 44 51 41 39 43 37 43 48 34 33 47 41 31 26 38 38 42 49 48 56 60
8 11 20 26 6 6 18 32 36 34 33 21 16 18 15 26 38 42 46 44 48 46 44 40 42 48 44 42 40 45 35 34 36 35 34 42 35 38 41 45 46 22 38 44 44 46 50 60 66
11 18 23 20 6 19 23 41 41 21 11 12 1 3 14 31 40 46 46 44 51 49 42 43 41 45 43 39 37 45 42 40 31 35 32 40 33 37 40 45 61 48 44 51 45 49 53 69 62
14 15 14 12 20 26 18 17 10 6 13 14 4 8 14 28 40 49 45 46 51 48 41 41 40 44 41 30 41 39 39 37 31 18 18 25 38 49 50 46 59 63 58 55 52 49 55 58 60
6 9 11 17 12 8 10 11 8 12 9 10 16 21 15 31 42 45 41 45 50 43 39 38 41 38 36 36 35 30 35 30 27 21 15 36 41 44 42 48 50 59 55 52 53 46 51 59 64
16 14 15 15 5 13 4 0 10 10 7 14 17 9 17 32 45 38 38 40 44 41 40 39 41 37 34 31 30 27 28 32 40 27 30 25 36 37 39 40 43 51 56 49 41 45 54 57 61
14 12 10 4 4 3 10 3 8 6 6 5 5 20 31 48 35 33 34 38 38 35 36 38 39 39 34 29 25 25 25 31 34 27 37 36 38 31 30 36 40 44 46 50 54 41 51 57 61
6 5 7 8 4 8 9 7 17 13 8 6 10 37 44 41 30 32 36 39 39 39 39 37 39 39 33 26 22 21 21 27 24 28 32 32 32 29 30 32 35 38 41 45 55 60 50 48 56
5 4 6 9 8 9 11 11 11 7 8 18 26 31 35 29 29 31 34 35 39 42 39 35 40 40 32 23 19 17 17 25 24 24 26 28 27 26 27 27 29 31 33 39 43 47 55 52 62
3 2 4 1 4 2 8 10 3 9 14 21 21 23 29 27 28 26 29 35 40 37 34 33 37 35 29 22 15 10 11 21 22 24 25 25 24 23 19 19 22 24 26 28 30 38 49 46 59
4 8 3 2 8 11 10 10 9 11 16 12 13 23 24 24 25 26 33 34 32 31 31 29 33 29 25 19 11 4 9 15 17 20 20 19 14 12 15 19 22 22 24 27 30 27 36 43 43
4 4 5 2 2 5 8 12 9 13 11 12 9 21 21 19 16 28 29 25 27 26 28 29 29 26 21 16 11 4 3 8 12 15 16 15 17 18 19 20 21 22 20 23 24 25 25 26 27
6 2 7 7 7 7 3 15 8 10 9 13 18 16 14 12 20 27 21 23 22 24 26 28 26 23 18 16 13 10 7 4 6 9 12 14 17 19 20 22 26 28 28 28 28 28 30 27 31
Wind_Direction_850mb
201 104 90 226 247 226 265 273 89 135 150 81 48 305 357 317 340 53 45 336 346 359 341 350 348 312 279 288 267 256 268 265 248 236 228 225 213 202 193 191 185 181 179 178 179 181 189 188 193
187 101 53 255 255 220 222 37 80 47 51 36 278 255 261 68 55 55 290 327 355 347 339 341 342 320 286 272 276 261 254 261 249 236 229 224 218 209 200 198 193 189 187 187 188 191 200 207 206
150 111 274 228 227 241 19 39 70 88 86 43 332 42 316 43 33 67 339 341 359 346 331 321 329 323 308 277 268 265 254 251 250 240 229 222 220 216 208 206 201 204 204 204 209 207 206 221 217
110 338 268 280 251 274 60 58 60 4 291 130 111 294 92 33 87 339 312 344 348 356 328 321 316 318 304 298 273 267 256 252 244 241 234 227 223 221 216 214 208 209 211 208 208 213 221 222 215
118 263 259 220 248 190 85 73 58 313 307 356 57 255 43 95 148 266 299 335 345 354 330 316 308 307 309 291 287 273 267 249 243 234 235 229 228 226 223 221 216 214 214 212 214 213 224 215 217
238 281 247 233 166 100 90 55 355 293 289 336 358 2 28 156 255 301 331 331 326 339 318 304 309 307 310 310 284 280 267 254 248 235 233 229 228 227 227 227 224 222 220 217 213 219 217 221 220
267 193 255 320 290 110 86 67 299 10 330 360 66 305 152 332 330 317 317 317 323 320 305 309 312 308 306 310 311 290 269 258 259 250 236 233 228 225 226 230 231 228 226 219 217 218 214 218 221
289 326 265 214 8 53 73 9 131 274 302 35 206 224 312 327 313 311 306 306 310 300 297 298 307 305 300 301 304 303 296 269 248 251 245 233 231 230 225 224 228 230 232 225 221 218 213 217 219
301 271 261 324 46 80 142 206 203 302 241 262 264 267 280 304 346 302 310 312 304 305 300 303 300 296 295 293 293 300 297 290 274 245 243 237 233 235 232 228 225 225 230 232 226 218 215 213 218
260 273 17 12 15 336 340 322 315 303 288 290 287 280 285 328 333 342 333 324 317 306 309 307 307 303 294 289 283 288 294 293 282 278 252 236 230 234 236 231 228 228 228 230 229 222 210 205 216
232 257 44 38 15 349 312 300 301 291 267 287 357 310 292 305 331 329 322 317 308 308 307 303 299 300 300 294 284 273 279 281 286 273 262 250 243 232 236 236 234 233 230 231 228 212 207 203 204
281 254 318 341 316 281 286 300 280 275 276 289 282 295 301 314 321 323 319 312 318 311 298 301 303 297 293 294 290 276 264 268 267 269 255 258 253 252 236 233 232 231 230 233 234 217 216 197 199
230 311 302 267 276 266 277 281 275 276 272 286 271 287 308 311 313 316 314 315 304 303 303 302 300 296 294 291 291 282 266 254 259 259 250 246 245 250 252 233 235 235 231 227 222 213 199 191 191
354 306 280 277 257 267 277 281 302 272 273 238 263 278 284 295 303 310 314 309 306 303 305 305 302 295 292 286 284 285 273 257 248 254 248 248 251 249 237 229 229 212 223 226 203 145 190 175 182
296 300 268 219 211 281 4 274 216 242 155 199 256 260 278 294 299 307 311 305 304 307 305 303 303 294 281 279 277 276 277 267 248 241 249 243 241 246 251 223 225 193 199 193 191 155 155 212 220
255 236 292 150 164 144 86 260 91 136 156 233 263 284 284 291 303 311 303 301 307 305 303 301 300 295 285 282 277 268 266 260 249 242 238 242 238 228 238 241 225 217 214 204 218 198 199 223 210
207 262 304 304 181 148 177 276 285 205 214 229 247 271 280 292 305 305 302 307 308 306 308 305 301 304 300 287 286 276 271 259 246 251 237 233 234 229 228 252 247 218 226 227 227 227 227 210 206
329 307 304 295 178 206 239 266 280 272 284 272 226 277 284 301 309 305 305 308 306 310 309 303 304 300 300 287 290 278 273 255 239 239 243 236 238 238 235 236 256 246 222 233 230 225 231 214 203
325 283 269 279 294 306 264 279 286 281 256 251 212 250 282 307 307 306 309 312 311 310 311 311 303 303 293 283 286 281 273 235 225 230 235 240 234 243 237 224 236 254 239 236 234 231 224 216 209
286 284 279 280 59 318 282 287 283 269 256 233 172 76 317 313 310 314 316 315 308 312 311 310 303 297 291 275 275 276 281 237 216 210 220 228 227 221 235 230 234 241 250 238 236 233 220 210 223
260 252 289 299 328 272 325 280 138 72 75 82 82 241 306 316 314 312 316 314 307 313 314 314 309 304 296 272 265 273 279 260 235 215 209 213 213 224 231 226 220 222 233 224 227 229 228 218 206
274 30 332 313 0 297 76 287 256 140 157 178 219 228 305 319 308 309 310 310 310 314 314 314 311 304 298 273 266 262 268 261 211 205 175 205 214 225 221 222 221 226 231 223 218 231 229 224 218
234 351 290 276 234 309 161 35 254 120 203 231 203 223 306 306 307 308 314 312 317 321 324 323 315 306 298 286 264 255 253 251 215 208 204 214 231 227 231 236 231 230 237 226 219 225 233 231 222
310 306 261 93 213 266 181 155 262 172 219 291 270 312 307 310 311 312 317 317 319 319 316 319 324 315 305 291 265 245 242 242 223 220 216 233 242 243 242 245 246 244 242 235 223 233 229 233 236
266 301 320 324 263 239 158 250 259 192 212 264 295 295 308 320 313 327 330 330 328 326 320 322 324 322 316 300 271 245 233 232 219 221 227 234 246 246 244 246 246 245 244 239 228 225 238 230 230
43 104 142 274 297 303 186 238 262 188 221 257 285 287 312 314 333 337 332 330 326 323 329 330 329 327 324 313 283 247 221 221 219 226 231 236 242 240 246 244 236 240 244 238 231 228 240 235 239
188 202 79 309 86 346 230 256 188 194 243 246 286 310 321 339 343 337 330 324 327 333 340 342 333 332 330 321 296 267 208 219 218 231 234 237 240 244 239 230 238 232 234 229 235 230 235 231 237
310 154 86 157 310 298 277 281 260 246 256 285 315 327 336 345 342 336 323 325 332 339 342 342 335 339 339 332 320 305 198 215 218 227 236 236 230 221 222 215 218 214 218 216 209 212 231 224 222
147 195 207 91 164 237 306 266 213 208 233 280 302 330 350 342 340 316 320 332 344 349 347 345 345 353 358 360 4 30 146 185 197 215 218 224 218 207 200 189 185 177 184 184 188 212 193 203 195
337 303 162 137 253 242 191 271 194 207 228 263 292 329 323 314 294 309 324 347 357 359 354 356 359 3 14 29 39 53 69 110 173 191 194 188 179 164 157 153 153 151 146 150 152 160 152 152 136